Location: Brunembert
(50.7122°N, 1.8935°E)
Time: 20:46:13
(UTC+00:00)

X-37B - Pass Details

Date: 25 September 2021
Orbit: 385 x 389 km, 45.0° (Epoch: 17 October)

Event Time Altitude Azimuth Distance (km) Brightness Sun altitude
Exits shadow 03:40:57 16° 155° (SSE) 1,123 2.9 -19.7°
Drops below altitude 10° 03:42:51 10° 118° (ESE) 1,414 3.9 -19.4°
Sets 03:45:28 0° 95° (E) 2,272 5.5 -19.0°
